FW0643 Weather Reports


time (UTC)temp
F
wind
direction
speed
knots
gust
knots
rain 1hr
in
rain 24hr
in
rain mn
in
humidity
%
barometer
mb
20230128010204 31 225 0.0 0.0 0.00 0.00 0.00 85 1026.5
20230128005207 32 225 0.0 0.0 0.00 0.00 0.00 85 1026.4
20230128002306 34 225 0.0 0.0 0.00 0.00 0.00 83 1026.1
20230128001305 35 225 0.0 0.0 0.00 0.00 0.00 82 1025.9
20230128000305 35 225 0.0 0.0 0.00 0.00 0.00 82 1025.8
20230127235306 35 225 0.0 0.0 0.00 0.00 0.00 81 1025.6
20230127234303 36 225 0.0 0.0 0.00 0.00 0.00 80 1025.7
20230127233304 36 225 0.0 0.0 0.00 0.00 0.00 79 1025.6
20230127233205 37 225 0.0 0.0 0.00 0.00 0.00 79 1025.6
20230127232204 37 225 0.0 0.0 0.00 0.00 0.00 76 1025.4
20230127231206 38 225 0.0 0.0 0.00 0.00 0.00 74 1025.6
20230127230205 39 225 0.0 0.0 0.00 0.00 0.00 69 1025.4
20230127225205 40 225 0.0 0.0 0.00 0.00 0.00 66 1025.4
20230127224203 41 225 0.0 0.0 0.00 0.00 0.00 63 1025.3
20230127223205 42 225 0.0 0.0 0.00 0.00 0.00 61 1025.2
20230127223106 43 225 0.0 0.0 0.00 0.00 0.00 60 1025.2
20230127222105 44 225 0.0 0.0 0.00 0.00 0.00 54 1025.2
20230127220203 45 247 1.7 3.5 0.00 0.00 0.00 50 1025.0
20230127215206 46 247 2.6 3.5 0.00 0.00 0.00 49 1024.9
20230127214304 46 243 3.5 4.3 0.00 0.00 0.00 48 1024.9
20230127213306 46 260 2.6 4.3 0.00 0.00 0.00 49 1025.0
20230127213205 46 267 2.6 3.5 0.00 0.00 0.00 49 1025.0
20230127212204 46 225 3.5 4.3 0.00 0.00 0.00 48 1025.0
20230127212105 46 244 2.6 3.5 0.00 0.00 0.00 48 1024.9
20230127211104 46 219 1.7 3.5 0.00 0.00 0.00 47 1024.8
20230127210104 47 253 4.3 5.2 0.00 0.00 0.00 46 1024.7
20230127205203 47 236 0.9 1.7 0.00 0.00 0.00 46 1024.7
20230127203203 47 237 2.6 3.5 0.00 0.00 0.00 47 1024.6
20230127201221 46 238 2.6 4.3 0.00 0.00 0.00 47 1024.4
20230127195207 46 174 0.9 1.7 0.00 0.00 0.00 47 1024.2
20230127194305 46 244 4.3 5.2 0.00 0.00 0.00 49 1024.2
20230127194220 45 243 4.3 5.2 0.00 0.00 0.00 49 1024.2
20230127193305 45 247 1.7 2.6 0.00 0.00 0.00 49 1024.4
20230127191307 45 231 5.2 7.8 0.00 0.00 0.00 49 1024.4
20230127190304 45 251 2.6 3.5 0.00 0.00 0.00 50 1024.5
20230127185305 45 235 3.5 5.2 0.00 0.00 0.00 49 1024.5
20230127184305 45 255 3.5 4.3 0.00 0.00 0.00 49 1024.4
20230127183304 45 264 0.0 0.9 0.00 0.00 0.00 48 1024.4
20230127182306 45 284 1.7 1.7 0.00 0.00 0.00 48 1024.5
20230127181304 45 247 2.6 4.3 0.00 0.00 0.00 47 1024.6
20230127180307 45 280 2.6 4.3 0.00 0.00 0.00 47 1024.7
20230127175307 45 270 1.7 2.6 0.00 0.00 0.00 46 1024.7
20230127174305 45 281 2.6 4.3 0.00 0.00 0.00 47 1024.8
20230127173303 44 266 2.6 3.5 0.00 0.00 0.00 47 1024.9
20230127171306 45 279 2.6 4.3 0.00 0.00 0.00 45 1025.3
20230127165306 46 259 3.5 5.2 0.00 0.00 0.00 46 1025.5
20230127164404 45 260 2.6 5.2 0.00 0.00 0.00 45 1025.6
20230127163404 45 281 1.7 3.5 0.00 0.00 0.00 45 1025.6
20230127162503 45 309 2.6 3.5 0.00 0.00 0.00 45 1025.9
20230127161506 45 262 2.6 3.5 0.00 0.00 0.00 47 1025.9
20230127160504 44 260 1.7 3.5 0.00 0.00 0.00 49 1025.9
20230127153504 43 292 2.6 3.5 0.00 0.00 0.00 49 1026.2
20230127152507 43 259 2.6 4.3 0.00 0.00 0.00 51 1026.2
20230127151604 42 292 0.0 1.7 0.00 0.00 0.00 52 1026.2
20230127145705 41 299 2.6 3.5 0.00 0.00 0.00 55 1026.1
20230127144706 41 311 0.9 2.6 0.00 0.00 0.00 58 1026.1
20230127143804 40 254 2.6 2.6 0.00 0.00 0.00 60 1026.0
20230127143704 40 285 1.7 3.5 0.00 0.00 0.00 60 1025.9
20230127141707 36 202 0.9 1.7 0.00 0.00 0.00 74 1025.6
20230127140705 35 247 1.7 3.5 0.00 0.00 0.00 76 1025.6
20230127135707 34 247 0.9 1.7 0.00 0.00 0.00 82 1025.4
20230127134804 33 247 0.0 0.9 0.00 0.00 0.00 84 1025.2
20230127133904 33 247 0.9 1.7 0.00 0.00 0.00 84 1025.1
20230127132905 33 247 1.7 2.6 0.00 0.00 0.00 83 1025.0
20230127131907 32 247 1.7 3.5 0.00 0.00 0.00 84 1025.0
20230127130006 31 247 1.7 3.5 0.00 0.00 0.00 87 1024.6
20230127125103 31 247 0.9 1.7 0.00 0.00 0.00 88 1024.4
20230127124106 31 247 0.9 0.9 0.00 0.00 0.00 89 1024.4
20230127123105 30 247 0.9 1.7 0.00 0.00 0.00 93 1024.2
20230127122105 31 247 0.9 1.7 0.00 0.00 0.00 94 1024.1
20230127121105 31 247 0.0 0.9 0.00 0.00 0.00 94 1024.0
20230127120106 31 247 0.0 0.0 0.00 0.00 0.00 93 1023.8
20230127120005 31 247 0.0 0.0 0.00 0.00 0.00 93 1023.8
20230127115004 31 247 0.9 1.7 0.00 0.00 0.00 92 1023.6
20230127114006 31 247 0.0 0.0 0.00 0.00 0.00 89 1023.5
20230127113007 31 247 0.0 1.7 0.00 0.00 0.00 88 1023.3
20230127112105 31 247 0.0 0.9 0.00 0.00 0.00 88 1023.3
20230127111107 30 247 1.7 2.6 0.00 0.00 0.00 90 1023.1
20230127110204 29 247 0.0 0.9 0.00 0.00 0.00 95 1022.9
20230127105305 29 247 0.0 0.9 0.00 0.00 0.00 95 1022.8
20230127104304 30 247 0.0 0.0 0.00 0.00 0.00 95 1022.8
20230127103304 30 247 0.0 0.9 0.00 0.00 0.00 94 1022.6
20230127103203 30 247 0.0 0.9 0.00 0.00 0.00 94 1022.6
20230127102305 30 247 0.0 0.9 0.00 0.00 0.00 93 1022.6
20230127101305 31 247 0.0 0.9 0.00 0.00 0.00 93 1022.5
20230127100403 31 247 0.0 0.0 0.00 0.00 0.00 91 1022.4
20230127095404 31 247 0.9 1.7 0.00 0.00 0.00 91 1022.2
20230127094406 31 247 0.9 0.9 0.00 0.00 0.00 94 1022.0
20230127091606 30 247 0.0 0.0 0.00 0.00 0.00 95 1021.8
20230127085706 30 247 0.0 0.9 0.00 0.00 0.00 95 1021.8
20230127084805 30 247 0.0 0.9 0.00 0.00 0.00 95 1021.8
20230127083004 31 247 0.0 0.0 0.00 0.00 0.00 95 1021.5
20230127081004 31 247 0.0 0.0 0.00 0.01 0.00 94 1021.3
20230127080006 31 247 0.0 0.0 0.00 0.01 0.00 94 1021.3
20230127075006 31 247 0.0 0.0 0.00 0.01 0.00 94 1021.2
20230127074004 31 247 0.0 0.0 0.00 0.01 0.00 94 1021.1
20230127073005 31 247 0.0 0.0 0.00 0.01 0.00 93 1020.9
20230127072005 31 247 0.0 0.0 0.00 0.01 0.00 93 1020.8
20230127071006 32 247 0.0 0.0 0.00 0.01 0.00 93 1020.7
20230127070105 32 247 0.0 0.0 0.00 0.01 0.00 93 1020.5
20230127065105 32 247 0.0 0.0 0.00 0.01 0.00 94 1020.5
20230127064106 32 247 0.0 0.9 0.00 0.01 0.00 94 1020.6
20230127064004 32 247 0.0 0.0 0.00 0.01 0.00 94 1020.6
20230127063007 32 247 0.0 0.0 0.00 0.01 0.00 94 1020.6
20230127060005 33 247 0.0 0.0 0.00 0.02 0.00 92 1020.3
20230127054005 33 247 0.0 0.0 0.00 0.03 0.00 91 1020.2
20230127053005 33 247 0.0 0.0 0.00 0.04 0.00 91 1020.2
20230127052005 33 247 0.0 0.0 0.00 0.04 0.00 91 1020.1
20230127051103 33 247 0.0 0.0 0.00 0.04 0.00 91 1020.2
20230127051004 33 247 0.0 0.0 0.00 0.04 0.00 90 1020.3
20230127050013 33 247 0.0 0.0 0.00 0.05 0.00 90 1020.2
20230127045012 34 247 0.0 0.0 0.00 0.05 0.05 90 1020.4
20230127044110 34 247 0.0 0.0 0.00 0.05 0.05 91 1020.5
20230127043110 35 247 0.0 0.0 0.00 0.06 0.05 90 1020.5
20230127040211 36 247 0.0 0.0 0.00 0.06 0.05 88 1020.3
20230127035214 36 247 0.0 0.0 0.00 0.07 0.05 88 1020.3
20230127034212 36 247 0.0 0.0 0.00 0.11 0.05 87 1020.2
20230127033212 37 247 0.0 0.0 0.00 0.14 0.05 84 1020.1
20230127032211 38 247 0.0 0.0 0.00 0.17 0.05 80 1020.2
20230127031211 40 247 0.0 0.0 0.00 0.20 0.05 75 1020.2
20230127024210 41 247 0.9 1.7 0.00 0.35 0.05 68 1020.0
20230127023213 42 247 1.7 1.7 0.00 0.49 0.05 68 1020.0
20230127022211 42 247 0.9 1.7 0.00 0.66 0.05 68 1019.8
20230127021310 42 247 1.7 1.7 0.00 0.67 0.05 69 1019.9
20230127020311 42 247 1.7 1.7 0.00 0.75 0.05 70 1019.7
20230127014410 41 247 1.7 1.7 0.00 0.95 0.05 73 1019.6
20230127013510 39 247 1.7 2.6 0.00 1.01 0.05 78 1019.4
20230127012511 38 225 0.0 0.0 0.00 1.15 0.05 88 1019.1
20230127011510 38 225 0.0 0.0 0.00 1.17 0.05 87 1018.9